Flag for Morocco Weather past 2 weeks in Tangier, Morocco

Now
90 °F

Passing clouds.


Feels Like: 86 °F
Forecast: 65 / 79 °F
Wind: 7 mph from East

Location: Tanger Aerodrome

Current Time: Oct 22, 2014 at 11:54:59 AM

Latest Report: Oct 22, 2014 at 11:30 AM


Visibility: N/A

Pressure: 30.21 "Hg

Humidity: 15%

Dew point: 36 °F

Location of TangierLocation

Historic Weather in Tangier — Graph

°F

Tangier temperature yesterday

Maximum temperature yesterday: 88 °F (at 2:30 PM)
Minimum temperature yesterday: 64 °F (at 8:00 AM)
Average temperature yesterday: 76 °F

Past Weeks' High & Low Weather Summary

 TemperatureHumidityPressure
High88 °F (Oct 21, 2:30 PM)94% (Oct 8, 3:30 AM)30.21 "Hg (Oct 8, 3:30 AM)
Low57 °F (Oct 8, 3:30 AM)27% (Oct 21, 11:00 AM)29.80 "Hg (Oct 11, 1:00 PM)
Average70 °F70%29.99 "Hg
* Reported Oct 7 10:00 AM — Oct 22 10:30 AM, Tangier, Weather by CustomWeather, © 2014

Note: Actual official high and low records may vary slightly from our data, if they occured in-between our weather recording intervals... More about our weather records

Advertising

Tangier weather history for previous 24 hours

 ConditionsComfort  
Time TempWeatherWind HumidityBarometerVisibility
10:30 AM
Oct 22
84 °FSunny.7 mph27%30.21 "Hg10 mi
10:00 AM81 °FSunny.5 mph32%30.21 "Hg10 mi
9:30 AM77 °FSunny.5 mph36%30.21 "Hg10 mi
9:00 AM73 °FSunny.7 mph41%30.21 "Hg10 mi
8:30 AM70 °FSunny.8 mph46%30.18 "Hg10 mi
8:00 AM68 °FPartly sunny.6 mph46%30.18 "Hg4 mi
7:30 AM68 °FPartly sunny.8 mph46%30.18 "Hg4 mi
7:00 AM66 °FPartly sunny.9 mph52%30.18 "Hg4 mi
6:30 AM68 °FPassing clouds.7 mph53%30.18 "Hg4 mi
6:00 AM68 °FPassing clouds.8 mph53%30.18 "Hg5 mi
5:30 AM70 °FPassing clouds.7 mph43%30.18 "HgN/A
5:00 AM68 °FPassing clouds.10 mph53%30.18 "Hg5 mi
4:30 AM68 °FPassing clouds.10 mph56%30.18 "HgN/A
4:00 AM68 °FPassing clouds.9 mph60%30.18 "Hg6 mi
3:30 AM68 °FPassing clouds.6 mph60%30.18 "Hg6 mi
3:00 AM72 °FPassing clouds.13 mph50%30.18 "HgN/A
2:30 AM70 °FPassing clouds.7 mph50%30.18 "HgN/A
2:00 AM72 °FPassing clouds.7 mph44%30.21 "Hg5 mi
1:30 AM72 °FPassing clouds.9 mph44%30.21 "Hg5 mi
1:00 AM72 °FPassing clouds.10 mph47%30.21 "Hg5 mi
12:30 AM72 °FPassing clouds.9 mph44%30.21 "Hg5 mi
12:00 AM72 °FPassing clouds.10 mph41%30.21 "Hg5 mi
11:30 PM
Oct 21
70 °FPassing clouds.7 mph53%30.21 "Hg5 mi
11:00 PM72 °FPassing clouds.7 mph44%30.21 "Hg5 mi
10:30 PM70 °FPassing clouds.8 mph53%30.21 "Hg5 mi
10:00 PM72 °FPassing clouds.8 mph50%30.21 "Hg5 mi
9:30 PM72 °FPassing clouds.7 mph47%30.18 "Hg5 mi
9:00 PM72 °FClear.7 mph50%30.18 "Hg10 mi
8:30 PM75 °FPassing clouds.7 mph41%30.18 "HgN/A
8:00 PM77 °FPassing clouds.6 mph36%30.18 "HgN/A
7:30 PM77 °FClear.9 mph36%30.15 "Hg10 mi
7:00 PM77 °FClear.13 mph39%30.15 "Hg10 mi
6:30 PM81 °FClear.13 mph34%30.15 "Hg10 mi
6:00 PM82 °FClear.9 mph32%30.12 "Hg10 mi
5:30 PM82 °FSunny.12 mph35%30.12 "Hg10 mi
5:00 PM86 °FSunny.15 mph31%30.12 "Hg10 mi
4:30 PM86 °FSunny.14 mph29%30.12 "Hg10 mi
4:00 PM88 °FSunny.14 mph27%30.12 "Hg10 mi
3:30 PM88 °FSunny.15 mph27%30.12 "Hg10 mi
3:00 PM88 °FPassing clouds.12 mph29%30.12 "HgN/A
2:30 PM88 °FPartly sunny.7 mph29%30.15 "Hg5 mi
2:00 PM84 °FPartly sunny.7 mph35%30.15 "Hg5 mi
1:30 PM84 °FPartly sunny.8 mph35%30.15 "Hg5 mi
1:00 PM86 °FPartly sunny.7 mph31%30.15 "Hg5 mi
12:30 PM84 °FPartly sunny.9 mph35%30.18 "Hg5 mi
12:00 PM82 °FScattered clouds.6 mph37%30.18 "Hg5 mi
11:30 AM84 °FScattered clouds.3 mph33%30.18 "Hg5 mi
11:00 AM84 °FScattered clouds.2 mph27%30.18 "Hg5 mi
Weather by CustomWeather, © 2014

See weather overviewHow to use our weather pages